Location: Tierra del Sol
(32.6128°N, 116.3319°W)
Time: 22:50:40
(UTC-08:00)

Amateur Radio Satellites - All Passes

Search period start: 28 February 2015 22:20
Search period end: 01 March 2015 22:20
Location: Tierra del Sol, 32.6128°N, 116.3319°W

Satellite Date Start Highest point End Downlink Frequencies (MHz)
Time Altitude Azimuth
UNISAT 6 28 Feb 22:27:33 22:31:51 84° 283° (WNW) 22:36:12 437.425
VERMONT LUNAR 28 Feb 22:30:47 22:34:10 50° 21° (NNE) 22:37:33 437.305
UKube-1 28 Feb 22:32:10 22:33:41 11° 269° (W) 22:34:55 .
HUMSAT D 28 Feb 22:38:18 22:41:07 17° 267° (W) 22:43:45 437.325/437.525
NANOSAT C BR1 28 Feb 22:39:57 22:44:10 71° 101° (ESE) 22:48:20 145.865
SPROUT 28 Feb 22:42:01 22:45:47 30° 73° (ENE) 22:49:36 437.525
TISAT 1 28 Feb 22:53:08 22:57:03 37° 74° (ENE) 23:01:02 437.305
TIGRISAT 28 Feb 22:53:55 22:57:57 40° 286° (WNW) 23:01:59 435.000
DANDE 28 Feb 22:56:20 23:02:21 28° 95° (E) 23:07:29 436.750
50 SAT 28 Feb 22:57:35 22:59:35 13° 268° (W) 23:01:21 437.505
ANTELSAT 28 Feb 23:06:38 23:10:21 28° 287° (WNW) 23:14:01 437.575/2403.000
QB50P1 28 Feb 23:12:24 23:16:26 43° 286° (WNW) 23:20:25 145.935-145.965
QB50P2 28 Feb 23:15:34 23:19:32 39° 286° (WNW) 23:23:27 145.880/145.840
BEESAT 28 Feb 23:22:05 23:23:31 12° 67° (ENE) 23:25:14 436.000
DUCHIFAT 1 28 Feb 23:32:53 23:36:24 25° 288° (WNW) 23:39:49 145.980
BUGSAT 1 28 Feb 23:33:46 23:37:31 32° 287° (WNW) 23:41:09 437.445
CUSAT 1 28 Feb 23:37:13 23:44:20 76° 97° (E) 23:49:46 437.405
CUBEBUG 1 28 Feb 23:40:05 23:42:03 12° 269° (W) 23:43:45 437.445
ITUPSAT 1 28 Feb 23:45:54 23:49:25 21° 70° (ENE) 23:53:05 437.325
GONETS M04 28 Feb 23:45:56 23:51:11 16° 294° (WNW) 23:55:51
POLYITAN 1 28 Feb 23:51:32 23:54:08 16° 290° (WNW) 23:56:34 437.675
POPSAT HIP 1 28 Feb 23:53:10 23:55:42 15° 290° (WNW) 23:58:05 437.405
PHONESAT 2.4 28 Feb 23:58:01 00:01:38 77° 209° (SSW) 00:05:13 2401.200-2431.200
Oscar 19 28 Feb 23:58:48 00:00:25 12° 90° (E) 00:02:23 437.125/150
VERMONT LUNAR 01 Mar 00:09:00 00:11:59 26° 215° (SW) 00:14:54 437.305
RS-15 01 Mar 00:10:18 00:20:51 51° 306° (NW) 00:31:26 29.354- 29.394
SPROUT 01 Mar 00:18:53 00:21:57 18° 266° (W) 00:24:51 437.525
SO-50 01 Mar 00:20:36 00:23:16 16° 109° (ESE) 00:26:12 436.795
TISAT 1 01 Mar 00:30:38 00:33:03 14° 268° (W) 00:35:15 437.305
DANDE 01 Mar 00:38:39 00:45:40 41° 280° (W) 00:51:09 436.750
SWISSCUBE 01 Mar 00:47:09 00:51:53 71° 259° (WSW) 00:56:41 437.505
BEESAT 01 Mar 00:56:13 01:00:55 61° 260° (W) 01:05:39 436.000
ITUPSAT 1 01 Mar 01:22:53 01:27:10 31° 263° (W) 01:31:23 437.325
CUSAT 1 01 Mar 01:24:30 01:27:18 12° 286° (WNW) 01:29:26 437.405
BEESAT 2 01 Mar 01:26:11 01:27:03 11° 47° (NE) 01:28:08 435.950
ITAMSAT 1 01 Mar 01:29:30 01:34:11 34° 97° (E) 01:38:55 435.822/435.867
Oscar 19 01 Mar 01:35:11 01:40:15 61° 285° (WNW) 01:45:18 437.125/150
PHONESAT 2.4 01 Mar 01:38:27 01:39:43 11° 220° (SW) 01:40:51 2401.200-2431.200
KKS-1 01 Mar 01:38:49 01:43:16 69° 76° (ENE) 01:47:45 437.445
JUGNU 01 Mar 01:46:13 01:49:48 17° 167° (SSE) 01:53:29 437.505
STARS 01 Mar 01:49:44 01:54:05 57° 75° (ENE) 01:58:26 437.465
YUBILEINY 01 Mar 01:53:19 01:59:34 22° 69° (ENE) 02:06:15 435.215
SO-50 01 Mar 01:59:09 02:03:29 42° 303° (WNW) 02:07:57 436.795
HORYU 2 01 Mar 02:03:42 02:04:36 11° 91° (E) 02:05:49 437.375
Gurwin Techsat 1B 01 Mar 02:29:40 02:35:00 79° 284° (WNW) 02:40:19 435.225
RS-15 01 Mar 02:31:37 02:36:58 14° 336° (NNW) 02:41:52 29.354- 29.394
AO-7 01 Mar 02:33:46 02:39:09 20° 93° (E) 02:44:59 29.400- 29.500
BEESAT 3 01 Mar 02:38:10 02:42:18 79° 62° (ENE) 02:46:21 437.485
MOZHAYETS 4 01 Mar 02:39:39 02:41:15 12° 68° (ENE) 02:43:09
AIST 2 01 Mar 02:48:50 02:52:36 30° 56° (NE) 02:56:20 435.215
M-CUBED/EXP-1 PRIME 01 Mar 02:58:15 03:01:22 42° 71° (ENE) 03:04:34 437.505
BEESAT 2 01 Mar 03:01:38 03:05:44 63° 244° (WSW) 03:09:45 435.950
AUBIESAT-1 01 Mar 03:01:49 03:04:55 40° 71° (ENE) 03:08:05 437.475
ITAMSAT 1 01 Mar 03:09:24 03:13:32 23° 291° (WNW) 03:17:31 435.822/435.867
SRMSAT 01 Mar 03:32:26 03:36:16 18° 168° (SSE) 03:40:10 437.500
JUGNU 01 Mar 03:33:38 03:38:15 23° 177° (S) 03:42:53 437.505
HORYU 2 01 Mar 03:37:18 03:41:38 51° 285° (WNW) 03:45:57 437.375
YUBILEINY 01 Mar 03:48:27 03:57:13 67° 267° (W) 04:05:53 435.215
JAS-2 01 Mar 03:56:47 04:04:15 64° 101° (E) 04:12:03 435.910
MOZHAYETS 4 01 Mar 04:13:40 04:18:06 52° 261° (W) 04:22:34
AO-7 01 Mar 04:24:27 04:32:42 72° 289° (WNW) 04:40:54 29.400- 29.500
PRISM 01 Mar 04:26:38 04:28:08 12° 68° (ENE) 04:29:54 437.425
AIST 2 01 Mar 04:27:59 04:31:01 19° 249° (WSW) 04:33:53 435.215
CUBESAT XI-V 01 Mar 04:32:28 04:35:02 15° 69° (ENE) 04:37:50 437.345
Cubesat XI-IV 01 Mar 04:44:51 04:46:30 12° 90° (E) 04:48:33 437.490
CUTE-I 01 Mar 04:53:22 04:56:10 15° 91° (E) 04:59:15 437.470
RS-15 01 Mar 04:56:26 04:56:41 10° 13° (NNE) 04:57:20 29.354- 29.394
SRMSAT 01 Mar 05:20:13 05:24:53 24° 178° (S) 05:29:33 437.500
JUGNU 01 Mar 05:22:16 05:26:43 21° 187° (S) 05:31:08 437.505
PCSat 01 Mar 05:23:55 05:28:32 28° 56° (NE) 05:33:11 145.827
STRAND 1 01 Mar 05:31:29 05:36:18 44° 73° (ENE) 05:41:12 437.568
JAS-2 01 Mar 05:43:03 05:48:50 24° 293° (WNW) 05:54:35 435.910
PRISM 01 Mar 05:59:23 06:03:18 42° 261° (W) 06:07:16 437.425
CUBESAT XI-V 01 Mar 06:07:42 06:12:09 43° 262° (W) 06:16:38 437.345
AO-7 01 Mar 06:20:55 06:24:19 13° 305° (NW) 06:27:06 29.400- 29.500
Cubesat XI-IV 01 Mar 06:21:50 06:27:09 66° 286° (WNW) 06:32:27 437.490
CUTE-I 01 Mar 06:31:25 06:36:38 54° 287° (WNW) 06:41:49 437.470
RS-15 01 Mar 07:04:37 07:14:26 33° 45° (NE) 07:24:55 29.354- 29.394
PCSat 01 Mar 07:07:10 07:11:57 32° 251° (WSW) 07:16:39 145.827
SRMSAT 01 Mar 07:09:08 07:13:30 21° 188° (S) 07:17:49 437.500
STRAND 1 01 Mar 07:12:21 07:15:46 17° 267° (W) 07:18:57 437.568
JUGNU 01 Mar 07:12:31 07:15:09 13° 196° (SSW) 07:17:39 437.505
AIST 1 01 Mar 07:17:28 07:21:40 49° 279° (W) 07:25:55
CUTE 1.7 + AOD 2 01 Mar 07:24:53 07:25:20 10° 90° (E) 07:26:07 437.475
HO-68 01 Mar 07:31:21 07:36:49 24° 94° (E) 07:42:33 435.675
BRITE-PL 01 Mar 07:37:43 07:41:32 28° 95° (E) 07:45:13 437.365/2234.400
ISS 01 Mar 07:48:14 07:50:55 25° 130° (SE) 07:53:39 145.825
GOMX 1 01 Mar 07:51:00 07:54:30 24° 95° (E) 07:57:57 467.674
GONETS M04 01 Mar 08:00:54 08:08:28 33° 74° (ENE) 08:16:16
AAUSAT CUBESAT 2 01 Mar 08:12:15 08:15:39 24° 96° (E) 08:19:06 437.432
COMPASS 1 01 Mar 08:13:20 08:16:59 29° 96° (E) 08:20:42 437.405
ANTELSAT 01 Mar 08:27:57 08:28:38 10° 68° (ENE) 08:29:36 437.575/2403.000
DOVE 4 01 Mar 08:32:55 08:37:04 53° 99° (E) 08:41:07 437.250
SEEDS 01 Mar 08:37:51 08:42:06 77° 101° (E) 08:46:20 437.485
CANX-2 01 Mar 08:38:31 08:42:47 77° 283° (WNW) 08:47:02 2200.000
O/OREOS (USA 219) 01 Mar 08:42:46 08:47:09 50° 106° (ESE) 08:51:36 437.305
UKube-1 01 Mar 08:47:39 08:48:55 11° 91° (E) 08:50:28 .
UWE-3 01 Mar 08:50:40 08:53:24 18° 94° (E) 08:56:18 435.000/436.395/437.385
CINEMA 3 01 Mar 08:52:43 08:56:42 45° 99° (E) 09:00:41 145.822/145.860
CUTE 1.7 + AOD 2 01 Mar 08:57:30 09:01:37 49° 285° (WNW) 09:05:43 437.475
SRMSAT 01 Mar 08:59:57 09:02:04 12° 197° (SSW) 09:04:02 437.500
POLYITAN 1 01 Mar 09:04:42 09:07:11 16° 70° (ENE) 09:09:51 437.675
POPSAT HIP 1 01 Mar 09:06:00 09:08:31 16° 70° (ENE) 09:11:13 437.405
RS-15 01 Mar 09:16:21 09:27:50 69° 246° (WSW) 09:39:44 29.354- 29.394
BRITE-PL 01 Mar 09:16:40 09:19:56 19° 291° (WNW) 09:22:56 437.365/2234.400
HO-68 01 Mar 09:17:56 09:24:53 53° 289° (WNW) 09:31:46 435.675
UNISAT 6 01 Mar 09:22:11 09:26:27 48° 75° (ENE) 09:30:41 437.425
CUBEBUG 2 01 Mar 09:23:46 09:27:51 58° 100° (E) 09:31:57 437.445
ISS 01 Mar 09:24:43 09:27:20 22° 324° (NW) 09:29:56 145.825
Oscar 11 01 Mar 09:27:58 09:32:18 85° 285° (WNW) 09:36:38 145.826/435.025
NANOSAT C BR1 01 Mar 09:28:32 09:32:13 29° 73° (ENE) 09:35:58 145.865
DELFI C3 01 Mar 09:28:49 09:32:55 78° 101° (E) 09:37:00 145.870
GOMX 1 01 Mar 09:29:17 09:32:34 20° 289° (WNW) 09:35:37 467.674
AISAT 01 Mar 09:46:18 09:49:53 24° 96° (E) 09:53:32 437.250
TIGRISAT 01 Mar 09:47:50 09:52:19 84° 258° (WSW) 09:56:41 435.000
AAUSAT CUBESAT 2 01 Mar 09:47:59 09:51:12 21° 288° (WNW) 09:54:17 437.432
DX 1 01 Mar 09:49:32 09:53:54 75° 103° (ESE) 09:58:14 434.975-435.025
COMPASS 1 01 Mar 09:49:38 09:52:31 18° 289° (WNW) 09:55:16 437.405
VELOX 1 01 Mar 09:56:18 10:00:14 31° 97° (E) 10:04:11 145.980
CUBEBUG 1 01 Mar 09:56:52 09:58:28 12° 91° (E) 10:00:21 437.445
GONETS M04 01 Mar 09:57:18 10:05:29 45° 270° (W) 10:13:36
QB50P1 01 Mar 10:00:18 10:04:35 74° 77° (ENE) 10:08:53 145.935-145.965
ANTELSAT 01 Mar 10:00:40 10:05:04 56° 260° (W) 10:09:21 437.575/2403.000
QB50P2 01 Mar 10:03:35 10:07:53 83° 78° (ENE) 10:12:11 145.880/145.840
ESTCUBE 1 01 Mar 10:06:39 10:09:49 19° 94° (E) 10:13:08 437.505/2401.250
FUNcube-1 01 Mar 10:09:35 10:13:40 56° 284° (WNW) 10:17:43 145.935
ZACube-1 01 Mar 10:10:17 10:14:20 54° 284° (WNW) 10:18:24 437.345
BUGSAT 1 01 Mar 10:18:38 10:22:54 90° 243° (WSW) 10:27:12 437.445
DUCHIFAT 1 01 Mar 10:20:07 10:24:21 63° 259° (W) 10:28:36 145.980
UKube-1 01 Mar 10:21:13 10:25:24 46° 286° (WNW) 10:29:32 .
CUSAT 1 01 Mar 10:23:23 10:25:06 16° 77° (ENE) 10:26:56 437.405
O/OREOS (USA 219) 01 Mar 10:24:46 10:26:58 13° 302° (WNW) 10:28:56 437.305
HUMSAT D 01 Mar 10:25:28 10:29:34 72° 283° (WNW) 10:33:40 437.325/437.525
UWE-3 01 Mar 10:26:28 10:30:01 27° 287° (WNW) 10:33:31 435.000/436.395/437.385
CINEMA 3 01 Mar 10:32:18 10:33:35 11° 291° (WNW) 10:34:37 145.822/145.860
SO-50 01 Mar 10:34:37 10:39:26 51° 58° (ENE) 10:44:13 436.795
50 SAT 01 Mar 10:38:19 10:42:15 72° 284° (WNW) 10:46:12 437.505
POLYITAN 1 01 Mar 10:38:54 10:42:52 35° 262° (W) 10:46:49 437.675
POPSAT HIP 1 01 Mar 10:40:13 10:44:10 34° 262° (W) 10:48:05 437.405
UNISAT 6 01 Mar 11:01:59 11:03:33 11° 269° (W) 11:04:49 437.425
NANOSAT C BR1 01 Mar 11:05:07 11:08:09 18° 266° (W) 11:11:02 145.865
Oscar 19 01 Mar 11:11:59 11:13:38 12° 66° (ENE) 11:15:37 437.125/150
AISAT 01 Mar 11:22:52 11:26:26 23° 289° (WNW) 11:29:52 437.250
DANDE 01 Mar 11:27:12 11:29:42 40° 263° (W) 11:32:12 436.750
CUBEBUG 1 01 Mar 11:30:56 11:35:09 45° 286° (WNW) 11:39:19 437.445
VELOX 1 01 Mar 11:33:29 11:36:38 19° 290° (WNW) 11:39:37 145.980
RS-15 01 Mar 11:35:38 11:39:00 11° 259° (WSW) 11:40:53 29.354- 29.394
ESTCUBE 1 01 Mar 11:42:44 11:46:47 31° 287° (WNW) 11:50:45 437.505/2401.250
SPROUT 01 Mar 12:08:41 12:12:59 72° 284° (WNW) 12:17:13 437.525
Gurwin Techsat 1B 01 Mar 12:11:01 12:12:02 11° 65° (ENE) 12:13:24 435.225
SO-50 01 Mar 12:16:44 12:19:38 15° 251° (WSW) 12:22:16 436.795
TISAT 1 01 Mar 12:17:50 12:22:01 61° 284° (WNW) 12:26:08 437.305
ITAMSAT 1 01 Mar 12:43:08 12:47:43 33° 71° (ENE) 12:52:25 435.822/435.867
Oscar 19 01 Mar 12:47:23 12:52:31 68° 259° (W) 12:57:38 437.125/150
SWISSCUBE 01 Mar 12:52:17 12:56:51 43° 99° (E) 13:01:24 437.505
BEESAT 01 Mar 13:01:06 13:05:45 49° 99° (E) 13:10:24 436.000
ITUPSAT 1 01 Mar 13:27:27 13:32:18 85° 282° (WNW) 13:37:07 437.325
AO-7 01 Mar 13:28:48 13:34:10 20° 60° (ENE) 13:39:56 29.400- 29.500
KKS-1 01 Mar 13:35:38 13:38:43 19° 94° (E) 13:41:56 437.445
STARS 01 Mar 13:45:41 13:48:07 15° 93° (E) 13:50:45 437.465
Gurwin Techsat 1B 01 Mar 13:46:08 13:51:26 79° 257° (WSW) 13:56:47 435.225
JAS-2 01 Mar 14:08:40 14:10:44 13° 62° (ENE) 14:13:13 435.910
ITAMSAT 1 01 Mar 14:23:05 14:27:17 24° 265° (W) 14:31:22 435.822/435.867
HORYU 2 01 Mar 14:30:57 14:35:23 81° 77° (ENE) 14:39:49 437.375
SWISSCUBE 01 Mar 14:31:21 14:34:24 16° 292° (WNW) 14:37:15 437.505
BEESAT 01 Mar 14:40:36 14:43:15 14° 292° (WNW) 14:45:39 436.000
YUBILEINY 01 Mar 14:48:32 14:55:30 29° 86° (E) 15:02:49 435.215
KKS-1 01 Mar 15:11:33 15:15:26 30° 288° (WNW) 15:19:14 437.445
AO-7 01 Mar 15:17:50 15:26:13 79° 255° (WSW) 15:34:36 29.400- 29.500
STARS 01 Mar 15:20:43 15:24:46 36° 287° (WNW) 15:28:44 437.465
JAS-2 01 Mar 15:49:49 15:55:06 70° 259° (W) 16:00:57 435.910
ISS 01 Mar 15:55:06 15:58:13 43° 41° (NE) 16:01:19 145.825
Cubesat XI-IV 01 Mar 16:02:27 16:04:57 14° 66° (ENE) 16:07:45 437.490
CUTE-I 01 Mar 16:11:01 16:14:14 17° 67° (ENE) 16:17:42 437.470
MOZHAYETS 4 01 Mar 16:13:16 16:17:47 51° 99° (E) 16:22:19
M-CUBED/EXP-1 PRIME 01 Mar 16:17:28 16:21:48 87° 107° (ESE) 16:26:26 437.505
AUBIESAT-1 01 Mar 16:20:31 16:24:51 84° 106° (ESE) 16:29:29 437.475
BEESAT 3 01 Mar 16:27:41 16:31:32 44° 114° (ESE) 16:35:28 437.485
AIST 2 01 Mar 16:43:28 16:46:26 19° 111° (ESE) 16:49:34 435.215
YUBILEINY 01 Mar 16:43:35 16:52:00 50° 282° (WNW) 17:00:24 435.215
PHONESAT 2.4 01 Mar 16:45:59 16:49:00 25° 144° (SE) 16:52:05 2401.200-2431.200
VERMONT LUNAR 01 Mar 16:50:19 16:53:46 62° 150° (SSE) 16:57:14 437.305
BEESAT 2 01 Mar 16:51:36 16:55:40 75° 117° (ESE) 16:59:49 435.950
AO-7 01 Mar 17:17:44 17:20:21 11° 272° (W) 17:22:05 29.400- 29.500
AIST 1 01 Mar 17:29:49 17:33:25 25° 77° (ENE) 17:37:05
ISS 01 Mar 17:33:00 17:34:23 12° 233° (SW) 17:35:38 145.825
Cubesat XI-IV 01 Mar 17:39:16 17:44:35 63° 259° (W) 17:49:55 437.490
PRISM 01 Mar 17:46:34 17:50:27 35° 98° (E) 17:54:21 437.425
STRAND 1 01 Mar 17:47:20 17:51:11 22° 94° (E) 17:55:10 437.568
CUTE-I 01 Mar 17:48:44 17:53:57 51° 260° (W) 17:59:10 437.470
MOZHAYETS 4 01 Mar 17:52:28 17:54:38 13° 292° (WNW) 17:56:32
HO-68 01 Mar 17:59:29 18:01:05 11° 59° (ENE) 18:03:13 435.675
BEESAT 3 01 Mar 18:07:35 18:09:54 14° 310° (NW) 18:12:05 437.485
CUBESAT XI-V 01 Mar 18:08:49 18:13:31 67° 100° (E) 18:18:10 437.345
AIST 2 01 Mar 18:21:05 18:24:52 30° 304° (NW) 18:28:40 435.215
PHONESAT 2.4 01 Mar 18:23:45 18:27:20 55° 338° (NNW) 18:30:55 2401.200-2431.200
VERMONT LUNAR 01 Mar 18:28:41 18:31:51 31° 345° (NNW) 18:35:00 437.305
BRITE-PL 01 Mar 18:43:02 18:47:37 27° 72° (ENE) 18:52:14 437.365/2234.400
GOMX 1 01 Mar 18:54:09 18:58:11 22° 71° (ENE) 19:02:14 467.674
O/OREOS (USA 219) 01 Mar 18:57:17 19:01:41 46° 67° (ENE) 19:06:05 437.305
COMPASS 1 01 Mar 19:02:38 19:04:04 12° 69° (ENE) 19:05:44 437.405
AIST 1 01 Mar 19:07:40 19:10:59 20° 270° (W) 19:14:09
PRISM 01 Mar 19:23:11 19:25:41 15° 291° (WNW) 19:28:02 437.425
STRAND 1 01 Mar 19:25:49 19:30:29 35° 288° (WNW) 19:35:04 437.568
SEEDS 01 Mar 19:26:05 19:29:40 29° 73° (ENE) 19:33:20 437.485
CANX-2 01 Mar 19:27:12 19:31:08 40° 75° (ENE) 19:35:07 2200.000
DOVE 4 01 Mar 19:33:23 19:38:08 37° 74° (ENE) 19:42:45 437.250
HO-68 01 Mar 19:40:44 19:47:50 75° 73° (ENE) 19:54:59 435.675
CUTE 1.7 + AOD 2 01 Mar 19:45:44 19:49:53 64° 77° (ENE) 19:54:04 437.475
CUBESAT XI-V 01 Mar 19:49:51 19:50:29 10° 293° (WNW) 19:50:47 437.345
CINEMA 3 01 Mar 19:50:02 19:54:06 28° 73° (ENE) 19:58:07 145.822/145.860
PCSat 01 Mar 20:00:22 20:05:42 64° 113° (ESE) 20:11:05 145.827
PHONESAT 2.4 01 Mar 20:03:14 20:06:16 24° 354° (N) 20:09:16 2401.200-2431.200
VERMONT LUNAR 01 Mar 20:07:37 20:10:23 21° 2° (N) 20:13:09 437.305
DELFI C3 01 Mar 20:13:01 20:16:18 25° 73° (ENE) 20:19:40 145.870
CUBEBUG 2 01 Mar 20:17:51 20:21:46 30° 73° (ENE) 20:25:40 437.445
Oscar 11 01 Mar 20:18:24 20:22:24 40° 75° (ENE) 20:26:28 145.826/435.025
BRITE-PL 01 Mar 20:20:47 20:25:58 35° 264° (W) 20:31:00 437.365/2234.400
GOMX 1 01 Mar 20:30:59 20:36:05 39° 262° (W) 20:40:59 467.674
AAUSAT CUBESAT 2 01 Mar 20:33:36 20:37:40 54° 260° (W) 20:41:43 437.432
COMPASS 1 01 Mar 20:35:29 20:39:27 43° 261° (W) 20:43:25 437.405
O/OREOS (USA 219) 01 Mar 20:38:38 20:40:44 13° 260° (W) 20:42:34 437.305
DX 1 01 Mar 20:40:52 20:44:51 35° 73° (ENE) 20:48:53 434.975-435.025
AISAT 01 Mar 20:41:21 20:43:34 14° 69° (ENE) 20:46:00 437.250
VELOX 1 01 Mar 20:50:41 20:53:32 17° 70° (ENE) 20:56:33 145.980
GONETS M04 01 Mar 20:55:58 21:03:58 44° 90° (E) 21:12:05
FUNcube-1 01 Mar 21:00:39 21:05:01 62° 76° (ENE) 21:09:17 145.935
ZACube-1 01 Mar 21:01:30 21:05:53 65° 77° (ENE) 21:10:12 437.345
SEEDS 01 Mar 21:02:44 21:05:35 17° 267° (W) 21:08:15 437.485
ESTCUBE 1 01 Mar 21:04:25 21:05:22 11° 67° (ENE) 21:06:36 437.505/2401.250
CANX-2 01 Mar 21:05:29 21:07:20 12° 269° (W) 21:08:56 2200.000
UKube-1 01 Mar 21:11:20 21:15:40 81° 77° (ENE) 21:20:03 .
DOVE 4 01 Mar 21:12:02 21:15:58 21° 266° (W) 21:19:39 437.250
HUMSAT D 01 Mar 21:13:02 21:17:00 42° 75° (ENE) 21:20:58 437.325/437.525
UWE-3 01 Mar 21:18:21 21:22:49 62° 260° (W) 21:27:11 435.000/436.395/437.385
UNISAT 6 01 Mar 21:20:15 21:22:22 14° 92° (E) 21:24:44 437.425
50 SAT 01 Mar 21:20:48 21:24:25 34° 74° (ENE) 21:28:03 437.505
RS-15 01 Mar 21:24:40 21:32:58 27° 106° (ESE) 21:41:45 29.354- 29.394
CINEMA 3 01 Mar 21:27:20 21:31:17 24° 265° (W) 21:35:01 145.822/145.860
HO-68 01 Mar 21:32:06 21:36:19 15° 269° (W) 21:40:02 435.675
PHONESAT 2.4 01 Mar 21:42:12 21:45:22 27° 11° (N) 21:48:32 2401.200-2431.200
TIGRISAT 01 Mar 21:44:35 21:48:11 27° 96° (E) 21:51:54 435.000
VERMONT LUNAR 01 Mar 21:45:32 21:48:51 39° 19° (NNE) 21:52:07 437.305
PCSat 01 Mar 21:46:20 21:49:39 16° 310° (NW) 21:52:46 145.827
DELFI C3 01 Mar 21:48:40 21:51:32 18° 266° (W) 21:54:16 145.870
QB50P1 01 Mar 21:51:26 21:54:06 17° 93° (E) 21:56:56 145.935-145.965
QB50P2 01 Mar 21:54:41 21:57:39 19° 94° (E) 22:00:43 145.880/145.840
CUBEBUG 2 01 Mar 21:55:05 21:58:30 20° 266° (W) 22:01:42 437.445
Oscar 11 01 Mar 21:56:44 21:58:50 13° 269° (W) 22:00:41 145.826/435.025
ANTELSAT 01 Mar 21:57:17 22:01:19 40° 99° (E) 22:05:26 437.575/2403.000
BUGSAT 1 01 Mar 22:06:50 22:09:39 18° 94° (E) 22:12:34 437.445
DUCHIFAT 1 01 Mar 22:10:07 22:13:44 28° 97° (E) 22:17:23 145.980
